Regional Weather Roundup
Issued by NWS

Home | Current Version | Previous Version | Text Only | Print | Product List | Glossary Off
Versions: 1 2 3 4 5 6 7 8 9 10 11 12 13 14 15 16 17 18 19 20 21 22 23 24 25 26 27 28 29 30 31 32 33 34 35 36 37 38 39 40 41 42 43 44 45 46 47 48 49 50

000
ASUS43 KBIS 220002
RWRND

NORTH DAKOTA REGIONAL WEATHER ROUNDUP
NATIONAL WEATHER SERVICE BISMARCK ND
700 PM CDT THU SEP 21 2017

NOTE: "FAIR" INDICATES FEW OR NO CLOUDS BELOW 12,000 FEET WITH NO
SIGNIFICANT WEATHER AND/OR OBSTRUCTIONS TO VISIBILITY.


NDZ001>003-009>011-017-220100-
NORTHWEST NORTH DAKOTA

CITY           SKY/WX    TMP DP  RH WIND       PRES   REMARKS
WILLISTON      PTCLDY    59  38  45 NW7       29.82R
6HR MIN TEMP:  54; 6HR MAX TEMP:  64; 6HR PCP: TRACE;

MINOT          CLEAR     65  45  48 NW12      29.75R
MINOT AFB      CLEAR     65  46  49 NW9       29.74R
$$

NDZ018>021-031>035-040>046-220100-
SOUTHWEST NORTH DAKOTA

CITY           SKY/WX    TMP DP  RH WIND       PRES   REMARKS
BISMARCK       CLEAR     73  48  41 NW12      29.70R
6HR MIN TEMP:  73; 6HR MAX TEMP:  82;

DICKINSON      CLEAR     64  40  41 N14       29.78R
GARRISON         N/A     67  45  45 N9        29.74R
6HR MIN TEMP:  66; 6HR MAX TEMP:  73;

HETTINGER ARPT CLEAR     67  42  40 N13       29.77R
$$

NDZ004>008-012>016-024-026-027-054-220100-
NORTHEAST NORTH DAKOTA

CITY           SKY/WX    TMP DP  RH WIND       PRES   REMARKS
GRAND FORKS    MOCLDY    75  53  46 SE10      29.68R
GRND FRKS AFB  MOCLDY    75  50  41 S7        29.69R
DEVILS LAKE    CLOUDY    71  59  65 NW10      29.69R
$$

NDZ022-023-025-028>030-036>039-047>053-220100-
SOUTHEAST NORTH DAKOTA

CITY           SKY/WX    TMP DP  RH WIND       PRES   REMARKS
FARGO          CLOUDY    77  60  55 E9        29.67S
6HR MIN TEMP:  76; 6HR MAX TEMP:  82;

JAMESTOWN      CLOUDY    77  64  64 SE5       29.65R
$$





USA.gov is the U.S. government's official web portal to all federal, state and local government web resources and services.